Regional Weather Roundup
Issued by NWS

Home | Current Version | Previous Version | Text Only | Print | Product List | Glossary On
Versions: 1 2 3 4 5 6 7 8 9 10 11 12 13 14 15 16 17 18 19 20 21 22 23 24 25 26 27 28 29 30 31 32 33 34 35 36 37 38 39 40 41 42 43 44 45 46 47 48 49 50
000
ASUS44 KMEG 211000
RWRTN
TENNESSEE HOURLY STATE WEATHER ROUNDUP
NATIONAL WEATHER SERVICE MEMPHIS TN
500 AM CDT MON APR 21 2014

TNZ002-004-019-021-049-052-054-088>092-211100-
WEST TENNESSEE

CITY           SKY/WX    TMP DP  RH WIND       PRES   REMARKS
MEMPHIS INTL   CLOUDY    63  49  60 S6        30.07R
NWS MEMPHIS      N/A     63 N/A N/A MISG        N/A
JACKSON        PTCLDY    52  48  86 CALM      30.07F
DYERSBURG      MOCLDY    55  45  67 CALM      30.07S
UNION CITY     CLEAR     55  52  88 CALM      30.06S
LEXINGTON      CLEAR     48  46  93 CALM      30.08S
$$

TNZ008-025-027-028-033-062-065-066-211100-
NORTH MIDDLE TENNESSEE

CITY           SKY/WX    TMP DP  RH WIND       PRES   REMARKS
NASHVILLE      PTCLDY    52  47  83 CALM      30.10S
CLARKSVILLE    PTCLDY    49  45  86 CALM      30.08S
CROSSVILLE     CLEAR     54  38  54 VRB5      30.16R
$$

TNZ061-075-076-078-094-096-097-211100-
SOUTH MIDDLE TENNESSEE

CITY           SKY/WX    TMP DP  RH WIND       PRES   REMARKS
TULLAHOMA      CLEAR     48  43  81 CALM      30.14R
WINCHESTER     CLEAR     55  43  62 SE5       30.14S
COLUMBIA       CLEAR     48  48 100 CALM      30.09S
$$

TNZ017-018-042-046-047-211100-
NORTHEAST TENNESSEE

CITY           SKY/WX    TMP DP  RH WIND       PRES   REMARKS
TRI CITIES     PTCLDY    41  31  67 CALM      30.17R
ELIZABETHTON   SUNNY     41  32  70 CALM      30.17R
$$

TNZ012-013-036-069-073-074-211100-
CENTRAL EAST TENNESSEE

CITY           SKY/WX    TMP DP  RH WIND       PRES   REMARKS
KNOXVILLE      PTCLDY    46  42  86 SE5       30.15R
OAK RIDGE      CLEAR     50  44  80 CALM      30.15S
$$

TNZ083-085-099-211100-
SOUTHEAST TENNESSEE

CITY           SKY/WX    TMP DP  RH WIND       PRES   REMARKS
CHATTANOOGA    PTCLDY    49  45  86 CALM      30.16R
$$

SKY/WX REPORTED AS FAIR MEANS FEW OR NO CLOUDS BELOW
12 THOUSAND FEET.




USA.gov is the U.S. government's official web portal to all federal, state and local government web resources and services.